TimeEST,TemperatureF,Dew PointF,Humidity,Sea Level PressureIn,VisibilityMPH,Wind Direction,Wind SpeedMPH,Gust SpeedMPH,PrecipitationIn,Events,Conditions,WindDirDegrees,DateUTC
12:54 AM,48.9,30.9,50,29.96,10.0,WNW,6.9,-,N/A,,Clear,300,2013-01-22 05:54:00
1:54 AM,46.0,30.0,54,29.98,10.0,WNW,4.6,-,N/A,,Clear,300,2013-01-22 06:54:00
2:54 AM,44.1,28.9,55,29.99,10.0,NW,3.5,-,N/A,,Clear,310,2013-01-22 07:54:00
3:54 AM,44.1,23.0,43,30.00,10.0,NNW,9.2,-,N/A,,Clear,330,2013-01-22 08:54:00
4:54 AM,42.1,21.0,43,30.03,10.0,NW,5.8,-,N/A,,Clear,310,2013-01-22 09:54:00
5:54 AM,37.9,19.9,48,30.07,10.0,NNW,4.6,-,N/A,,Clear,330,2013-01-22 10:54:00
6:54 AM,37.9,14.0,38,30.12,10.0,NNW,10.4,19.6,N/A,,Clear,340,2013-01-22 11:54:00
7:54 AM,37.0,14.0,39,30.15,10.0,North,12.7,-,N/A,,Clear,350,2013-01-22 12:54:00
8:54 AM,37.9,12.9,36,30.17,10.0,North,12.7,-,N/A,,Clear,360,2013-01-22 13:54:00
9:54 AM,39.0,12.0,33,30.20,10.0,North,12.7,-,N/A,,Clear,360,2013-01-22 14:54:00
10:54 AM,42.1,12.0,29,30.20,10.0,NW,12.7,21.9,N/A,,Clear,320,2013-01-22 15:54:00
11:54 AM,43.0,12.0,28,30.18,10.0,NNW,8.1,19.6,N/A,,Clear,340,2013-01-22 16:54:00
12:54 PM,43.0,10.0,26,30.17,10.0,NW,11.5,18.4,N/A,,Clear,310,2013-01-22 17:54:00
1:54 PM,43.0,8.1,24,30.16,10.0,NW,11.5,18.4,N/A,,Clear,320,2013-01-22 18:54:00
2:54 PM,44.1,7.0,22,30.16,10.0,WNW,10.4,17.3,N/A,,Clear,300,2013-01-22 19:54:00
3:54 PM,42.1,7.0,24,30.17,10.0,NNW,9.2,-,N/A,,Clear,340,2013-01-22 20:54:00
4:54 PM,39.9,7.0,26,30.20,10.0,NW,5.8,-,N/A,,Clear,310,2013-01-22 21:54:00
5:54 PM,36.0,8.1,31,30.22,10.0,North,4.6,-,N/A,,Clear,350,2013-01-22 22:54:00
6:54 PM,34.0,9.0,35,30.25,10.0,North,4.6,-,N/A,,Clear,350,2013-01-22 23:54:00
7:54 PM,32.0,7.0,35,30.26,10.0,NNE,5.8,-,N/A,,Unknown,20,2013-01-23 00:54:00
8:54 PM,32.0,7.0,35,30.26,10.0,NNE,4.6,-,N/A,,Clear,20,2013-01-23 01:54:00
9:54 PM,30.9,8.1,38,30.28,10.0,NNE,4.6,-,N/A,,Clear,30,2013-01-23 02:54:00
10:54 PM,28.9,8.1,41,30.28,10.0,NNE,5.8,-,N/A,,Clear,20,2013-01-23 03:54:00
11:54 PM,28.9,9.0,43,30.31,10.0,NNE,8.1,-,N/A,,Clear,20,2013-01-23 04:54:00